Погода в Мтваре

Танзания     10°17′05″S   40°11′10″E
темп.,
°C
ветер,
м/с
пор.,
м/с
влажн.,
%
обл.,
%
осадки,
мм/ч
давл.,
гПа
погр.,
м
25 февраля, чт
чт2500:00+27ссз4678100 0.1 1011624
03:00+25зсз91392100 6.7 1010638
06:00+25сз4686100 2.1 1010364
09:00+26ссз5682100 2.1 1012458
12:00+28сз6780100 1.4 1010609
15:00+28ссз4579100 2.3 1008525
18:00+28ссз577979 0.0 1007515
21:00+27ссз358256 0.0 1009409
26 февраля, пт
пт2600:00+27ссз35840 0.5 1009388
03:00+27ссз468611 1.4 1008473
06:00+27сз468864 0.9 1008446
09:00+28сз578780 1.0 1010659
12:00+28сз6785100 0.1 1008549
15:00+28ссз7884100 2.6 1006562
18:00+28ссз81081100 3.6 1006444
21:00+28с5782100 3.6 1008429
27 февраля, сб
сб2700:00+27с4686100 0.9 1007461
03:00+27ссз5787100 4.4 1006446
06:00+27с7887100 8.9 1007427
09:00+26ссз101287100 10.3 1010692
12:00+26ссз91187100 0.6 1009755
15:00+26сз6982100 0.6 1006651
18:00+27сз6878100 0.0 1007531
21:00+26зсз5777100 0.1 1009467
28 февраля, вс
вс2800:00+25зюз3779100 0.4 1009330
03:00+25зюз41081100 0.5 1008558
06:00+25з51084100 0.8 1009595
09:00+26з51080100 0.8 1011673
12:00+27з71076100 1.2 1010860
15:00+27зсз5777100 2.6 1007729
18:00+27з5975100 0.1 1007509
21:00+27зюз3574100 0.1 1009213
1 марта, пн
пн100:00+26юз3574100 0.0 1009204
03:00+25зюз3578100 0.9 1008199
06:00+25зсз3479100 0.1 1009204
09:00+26з2474100 0.1 1011233
12:00+27зсз3372100 0.0 1010381
15:00+28с3372100 0.0 1008335
18:00+27с127299 0.0 1007247
21:00+27ссз237699 0.0 1009364